C31FR-13 Weather Reports


Display with metric or nautical units.
time (UTC)temp
F
wind
direction
speed
MPH
gust
MPH
rain 1hr
in
rain 24hr
in
rain mn
in
humidity
%
barometer
mb
20260904060601 68 0.0 0.0 0.00 0.00 0.00 52 1026.2
20260904052602 68 0.0 0.0 0.00 0.00 0.00 50 1026.2
20260904051603 69 0.0 0.0 0.00 0.00 0.00 50 1026.0
20260904045102 68 0.0 0.0 0.00 0.00 0.00 50 1026.1
20260904041602 69 0.0 0.0 0.00 0.00 0.00 49 1026.3
20260904032102 70 0.0 0.0 0.00 0.00 0.00 46 1026.4
20260904030602 70 0.0 0.0 0.00 0.00 0.00 46 1026.5
20260904022601 71 0.0 0.0 0.00 0.00 0.00 44 1026.5
20260904013602 71 0.0 0.0 0.00 0.00 0.00 45 1026.8
20260904013102 71 0.0 0.0 0.00 0.00 0.00 45 1026.9
20260904002102 72 0.0 0.0 0.00 0.00 0.00 43 1027.4
20260904001102 72 0.0 0.0 0.00 0.00 0.00 42 1027.5
20260904000602 73 0.0 0.0 0.00 0.00 0.00 42 1027.4
20260903232102 73 0.0 0.0 0.00 0.00 0.00 40 1027.5
20260903231102 73 0.0 0.0 0.00 0.00 0.00 40 1027.4
20260903225602 74 0.0 0.0 0.00 0.00 0.00 39 1027.3
20260903224602 74 0.0 0.0 0.00 0.00 0.00 39 1027.2
20260903222602 75 0.0 0.0 0.00 0.00 0.00 38 1027.2
20260903222103 75 0.0 0.0 0.00 0.00 0.00 38 1027.1
20260903212602 76 0.0 0.0 0.00 0.00 0.00 36 1027.1
20260903210602 77 0.0 0.0 0.00 0.00 0.00 37 1026.9
20260903205102 77 0.0 0.0 0.00 0.00 0.00 35 1026.8
20260903203101 78 0.0 0.0 0.00 0.00 0.00 36 1026.8
20260903202602 78 0.0 0.0 0.00 0.00 0.00 36 1026.7
20260903201103 79 0.0 0.0 0.00 0.00 0.00 36 1026.6
20260903200602 79 0.0 0.0 0.00 0.00 0.00 36 1026.5
20260903193602 80 0.0 0.0 0.00 0.00 0.00 34 1025.9
20260903193102 80 0.0 0.0 0.00 0.00 0.00 34 1025.7
20260903191602 81 0.0 0.0 0.00 0.00 0.00 34 1025.5
20260903185602 82 0.0 0.0 0.00 0.00 0.00 33 1025.2
20260903185102 82 0.0 0.0 0.00 0.00 0.00 34 1025.1
20260903183603 83 0.0 0.0 0.00 0.00 0.00 35 1024.7
20260903180602 83 0.0 0.0 0.00 0.00 0.00 36 1024.4
20260903165602 92 0.0 0.0 0.00 0.00 0.00 26 1023.7
20260903165102 91 0.0 0.0 0.00 0.00 0.00 26 1023.7
20260903164602 91 0.0 0.0 0.00 0.00 0.00 26 1023.7
20260903163102 92 0.0 0.0 0.00 0.00 0.00 25 1023.6
20260903162102 92 0.0 0.0 0.00 0.00 0.00 25 1023.7
20260903160602 92 0.0 0.0 0.00 0.00 0.00 25 1023.6
20260903155602 91 0.0 0.0 0.00 0.00 0.00 25 1023.5
20260903154602 91 0.0 0.0 0.00 0.00 0.00 25 1023.5
20260903145602 89 0.0 0.0 0.00 0.00 0.00 25 1023.7
20260903144603 89 0.0 0.0 0.00 0.00 0.00 26 1023.7
20260903143602 88 0.0 0.0 0.00 0.00 0.00 25 1023.7
20260903142102 88 0.0 0.0 0.00 0.00 0.00 26 1023.8
20260903135602 86 0.0 0.0 0.00 0.00 0.00 26 1024.0
20260903134102 86 0.0 0.0 0.00 0.00 0.00 27 1024.2
20260903125102 84 0.0 0.0 0.00 0.00 0.00 27 1024.5
20260903123102 84 0.0 0.0 0.00 0.00 0.00 29 1024.7
20260903115602 82 0.0 0.0 0.00 0.00 0.00 31 1025.0
20260903114602 82 0.0 0.0 0.00 0.00 0.00 32 1025.1
20260903113603 81 0.0 0.0 0.00 0.00 0.00 33 1025.1
20260903112102 80 0.0 0.0 0.00 0.00 0.00 37 1025.3
20260903104602 78 0.0 0.0 0.00 0.00 0.00 43 1025.7
20260903095602 75 0.0 0.0 0.00 0.00 0.00 49 1026.5
20260903085602 72 0.0 0.0 0.00 0.00 0.00 54 1026.8
20260903085102 72 0.0 0.0 0.00 0.00 0.00 54 1026.8
20260903083102 71 0.0 0.0 0.00 0.00 0.00 57 1026.7
20260903082602 71 0.0 0.0 0.00 0.00 0.00 58 1026.7
20260903082102 70 0.0 0.0 0.00 0.00 0.00 58 1026.8
20260903081602 70 0.0 0.0 0.00 0.00 0.00 59 1026.8
20260903073602 69 0.0 0.0 0.00 0.00 0.00 62 1027.2
20260903073103 68 0.0 0.0 0.00 0.00 0.00 62 1027.3
20260903072102 68 0.0 0.0 0.00 0.00 0.00 63 1027.4
20260903070602 67 0.0 0.0 0.00 0.00 0.00 64 1027.4